EA3KZ-1 Weather Reports


time (UTC)temp
C
wind
direction
speed
KPH
gust
KPH
rain 1hr
cm
rain 24hr
cm
rain mn
cm
humidity
%
barometer
mb
20260508192524 15 347 4.8 9.7 0.00 0.00 0.00 82 1010.0
20260508191521 15 16 6.4 11.3 0.00 0.00 0.00 81 1009.9
20260508190518 15 151 3.2 11.3 0.00 0.00 0.00 80 1009.8
20260508185516 15 45 4.8 9.7 0.00 0.00 0.00 80 1009.9
20260508184613 15 17 6.4 12.9 0.00 0.00 0.00 80 1009.9
20260508183611 15 58 4.8 12.9 0.00 0.00 0.00 78 1009.7
20260508182608 16 357 3.2 9.7 0.00 0.00 0.00 77 1009.6
20260508181606 15 34 8.0 17.7 0.00 0.00 0.00 77 1009.5
20260508180603 16 134 3.2 6.4 0.00 0.00 0.00 76 1009.5
20260508175600 16 87 3.2 11.3 0.00 0.00 0.00 75 1009.5
20260508174558 16 75 4.8 12.9 0.00 0.00 0.00 75 1009.4
20260508172553 17 252 3.2 9.7 0.00 0.00 0.00 72 1009.3
20260508171550 16 166 3.2 6.4 0.00 0.00 0.00 71 1009.3
20260508170547 16 69 3.2 11.3 0.00 0.00 0.00 71 1009.2
20260508165545 17 68 4.8 17.7 0.00 0.00 0.00 69 1009.1
20260508164542 17 193 3.2 6.4 0.00 0.00 0.00 68 1009.1
20260508163540 17 59 3.2 9.7 0.00 0.00 0.00 69 1009.1
20260508162537 17 64 6.4 17.7 0.00 0.00 0.00 69 1008.9
20260508161534 17 33 9.7 14.5 0.00 0.00 0.00 69 1008.9
20260508160532 17 41 8.0 17.7 0.00 0.00 0.00 70 1009.1
20260508155530 17 58 8.0 20.9 0.00 0.00 0.00 71 1009.2
20260508154527 17 47 6.4 14.5 0.00 0.00 0.00 70 1009.3
20260508153525 17 82 3.2 14.5 0.00 0.00 0.00 70 1009.2
20260508152522 18 134 4.8 11.3 0.00 0.00 0.00 70 1009.2
20260508151519 18 117 4.8 12.9 0.00 0.00 0.00 69 1009.2
20260508150517 18 139 4.8 11.3 0.00 0.00 0.00 67 1009.0
20260508145614 18 62 6.4 14.5 0.00 0.00 0.00 63 1009.0
20260508144612 18 43 8.0 22.5 0.00 0.00 0.00 63 1009.0
20260508143609 18 38 8.0 20.9 0.00 0.00 0.00 62 1009.0
20260508142607 18 57 6.4 14.5 0.00 0.00 0.00 64 1009.0
20260508141604 18 101 6.4 17.7 0.00 0.00 0.00 64 1009.2
20260508140601 18 36 9.7 17.7 0.00 0.00 0.00 62 1009.4
20260508135559 19 37 6.4 17.7 0.00 0.00 0.00 62 1009.6
20260508134556 19 86 3.2 14.5 0.00 0.00 0.00 61 1009.5
20260508133554 19 110 3.2 6.4 0.00 0.00 0.00 58 1009.7
20260508132551 19 106 3.2 9.7 0.00 0.00 0.00 60 1009.8
20260508131548 18 89 3.2 9.7 0.00 0.00 0.00 60 1009.8
20260508130546 18 54 8.0 22.5 0.00 0.00 0.00 59 1009.7
20260508125543 19 30 3.2 14.5 0.00 0.00 0.00 55 1009.5
20260508124541 18 53 6.4 17.7 0.00 0.00 0.00 54 1009.7
20260508123538 18 115 6.4 22.5 0.00 0.00 0.00 59 1009.8
20260508122538 18 359 3.2 9.7 0.00 0.00 0.00 63 1009.6
20260508121533 19 44 6.4 17.7 0.00 0.00 0.00 59 1009.7
20260508120530 18 189 4.8 11.3 0.00 0.00 0.00 61 1009.8
20260508115527 18 143 3.2 17.7 0.00 0.00 0.00 62 1009.8
20260508114525 18 61 3.2 12.9 0.00 0.00 0.00 64 1009.6
20260508113522 18 5 3.2 12.9 0.00 0.00 0.00 60 1009.7
20260508112520 18 33 3.2 14.5 0.00 0.00 0.00 59 1009.7
20260508111517 17 58 8.0 17.7 0.00 0.00 0.00 63 1009.6
20260508110615 17 192 3.2 9.7 0.00 0.00 0.00 65 1009.6
20260508105612 17 73 3.2 11.3 0.00 0.00 0.00 65 1009.6
20260508104609 17 24 6.4 11.3 0.00 0.00 0.00 67 1009.7
20260508103607 17 354 6.4 17.7 0.00 0.00 0.00 65 1009.9
20260508102604 17 35 1.6 6.4 0.00 0.00 0.00 66 1009.8
20260508101602 18 298 1.6 9.7 0.00 0.00 0.00 64 1010.1
20260508100559 18 18 3.2 9.7 0.00 0.00 0.00 65 1010.0
20260508095556 17 29 4.8 9.7 0.00 0.00 0.00 69 1010.0
20260508094554 17 19 4.8 14.5 0.00 0.00 0.00 67 1010.0
20260508093551 17 7 1.6 9.7 0.00 0.00 0.00 68 1010.1
20260508092548 17 161 1.6 9.7 0.00 0.00 0.00 66 1010.1
20260508091546 17 54 3.2 9.7 0.00 0.00 0.00 66 1009.9
20260508090543 17 71 3.2 6.4 0.00 0.00 0.00 64 1009.9
20260508085540 17 51 4.8 12.9 0.00 0.00 0.00 60 1009.8
20260508084538 17 51 3.2 12.9 0.00 0.00 0.00 59 1009.7
20260508083535 17 37 4.8 11.3 0.00 0.00 0.00 63 1009.6
20260508082533 17 10 4.8 12.9 0.00 0.00 0.00 62 1009.3
20260508081530 17 113 0.0 3.2 0.00 0.00 0.00 60 1009.2
20260508080527 16 32 4.8 9.7 0.00 0.00 0.00 62 1009.1
20260508075525 17 110 1.6 6.4 0.00 0.00 0.00 60 1009.0
20260508074522 16 56 1.6 6.4 0.00 0.00 0.00 63 1009.0
20260508073520 17 105 1.6 6.4 0.00 0.00 0.00 61 1009.0
20260508072517 16 113 1.6 6.4 0.00 0.00 0.00 61 1008.8
20260508071514 16 68 0.0 3.2 0.00 0.00 0.00 62 1008.6
20260508070612 16 13 0.0 3.2 0.00 0.00 0.00 61 1008.5
20260508065610 15 351 1.6 6.4 0.00 0.00 0.00 64 1008.5
20260508064607 15 327 1.6 3.2 0.00 0.00 0.00 63 1008.6
20260508063604 15 16 3.2 6.4 0.00 0.00 0.00 62 1008.5
20260508062602 15 0.0 0.0 0.00 0.00 0.00 61 1008.5
20260508061559 14 0.0 0.0 0.00 0.00 0.00 64 1008.4
20260508060556 12 278 1.6 3.2 0.00 0.00 0.00 68 1008.3
20260508055554 11 230 1.6 3.2 0.00 0.00 0.00 73 1008.2
20260508054551 11 0.0 3.2 0.00 0.00 0.00 73 1008.4
20260508053549 11 0.0 0.0 0.00 0.00 0.00 71 1008.1
20260508052546 11 302 1.6 3.2 0.00 0.00 0.00 70 1008.0
20260508051543 11 296 3.2 3.2 0.00 0.00 0.00 70 1007.8
20260508050541 11 275 1.6 3.2 0.00 0.00 0.00 70 1007.7
20260508045538 11 269 1.6 3.2 0.00 0.00 0.00 72 1007.7
20260508044535 11 265 3.2 6.4 0.00 0.00 0.00 72 1007.8
20260508043533 11 240 3.2 6.4 0.00 0.00 0.00 71 1007.8
20260508042530 11 0.0 0.0 0.00 0.00 0.00 72 1007.7
20260508041528 11 282 3.2 6.4 0.00 0.00 0.00 73 1007.6
20260508040525 11 315 1.6 3.2 0.00 0.00 0.00 76 1007.6
20260508035522 11 0.0 0.0 0.00 0.00 0.00 75 1007.4
20260508034520 11 270 0.0 3.2 0.00 0.00 0.00 74 1007.5
20260508033517 11 315 0.0 3.2 0.00 0.00 0.00 74 1007.4
20260508032515 11 0.0 0.0 0.00 0.00 0.00 74 1007.6
20260508031612 11 0.0 0.0 0.00 0.00 0.00 75 1007.6
20260508030609 11 293 0.0 3.2 0.00 0.00 0.00 76 1007.7
20260508025607 11 0.0 0.0 0.00 0.00 0.00 76 1007.7
20260508024604 11 0.0 0.0 0.00 0.00 0.00 77 1007.6
20260508023602 11 0.0 0.0 0.00 0.00 0.00 77 1007.8
20260508022559 12 0.0 0.0 0.00 0.00 0.00 76 1007.9
20260508021556 12 0.0 3.2 0.00 0.00 0.00 74 1007.8
20260508020554 12 248 0.0 3.2 0.00 0.00 0.00 73 1007.9
20260508015551 12 270 0.0 3.2 0.00 0.00 0.00 75 1008.0
20260508014549 12 271 1.6 3.2 0.00 0.00 0.00 75 1008.0
20260508013546 12 270 1.6 3.2 0.00 0.00 0.00 75 1008.1
20260508012543 12 259 0.0 3.2 0.00 0.00 0.00 77 1008.2
20260508011541 12 0.0 0.0 0.00 0.00 0.00 75 1008.3
20260508010538 12 0.0 0.0 0.00 0.00 0.00 76 1008.4
20260508005536 12 0.0 3.2 0.00 0.00 0.00 77 1008.4
20260508004533 12 315 1.6 3.2 0.00 0.00 0.00 76 1008.4
20260508003530 12 0.0 3.2 0.00 0.00 0.00 78 1008.5
20260508002528 12 248 0.0 3.2 0.00 0.00 0.00 76 1008.6
20260508001525 12 218 0.0 3.2 0.00 0.00 0.00 78 1008.7
20260508000522 13 0.0 3.2 0.00 0.00 0.00 73 1008.8
20260507235520 13 272 1.6 3.2 0.00 0.00 0.00 75 1008.8
20260507234517 12 264 1.6 6.4 0.00 0.00 0.00 75 1009.0
20260507233514 13 197 1.6 6.4 0.00 0.00 0.00 77 1009.0
20260507232613 13 251 3.2 6.4 0.00 0.00 0.00 77 1009.0
20260507231610 12 281 1.6 6.4 0.00 0.00 0.00 80 1009.1
20260507230607 12 220 1.6 3.2 0.00 0.00 0.00 82 1009.2
20260507225604 12 293 1.6 3.2 0.00 0.00 0.00 84 1009.4
20260507224602 12 263 1.6 3.2 0.00 0.00 0.00 86 1009.5
20260507223559 13 0.0 0.0 0.00 0.00 0.00 86 1009.5
20260507222557 13 273 1.6 3.2 0.00 0.00 0.00 86 1009.6
20260507221554 13 226 3.2 6.4 0.00 0.00 0.00 86 1009.6
20260507220551 13 232 3.2 6.4 0.00 0.00 0.00 86 1009.6
20260507215549 13 230 4.8 9.7 0.00 0.00 0.00 85 1009.7
20260507214546 13 270 3.2 6.4 0.00 0.00 0.00 85 1009.7
20260507213544 13 270 0.0 3.2 0.00 0.00 0.00 85 1009.6
20260507212541 13 287 3.2 3.2 0.00 0.00 0.00 85 1009.7
20260507211538 13 285 3.2 3.2 0.00 0.00 0.00 85 1009.6
20260507210536 13 304 1.6 3.2 0.00 0.00 0.00 85 1009.7
20260507205533 13 58 1.6 3.2 0.00 0.00 0.00 84 1009.7
20260507204530 13 146 0.0 3.2 0.00 0.00 0.00 84 1009.6
20260507203528 13 94 1.6 3.2 0.00 0.00 0.00 84 1009.6
20260507202525 13 90 0.0 3.2 0.00 0.00 0.00 83 1009.5
20260507201523 14 32 1.6 3.2 0.00 0.00 0.00 82 1009.5
20260507200520 14 0.0 3.2 0.00 0.00 0.00 82 1009.3
20260507195517 14 30 0.0 3.2 0.00 0.00 0.00 81 1009.2
20260507194515 14 28 1.6 3.2 0.00 0.00 0.00 81 1009.0
20260507193612 14 350 3.2 9.7 0.00 0.00 0.00 80 1008.8
20260507192610 14 34 3.2 6.4 0.00 0.00 0.00 79 1008.6